Terug naar catalogus

GLOBALSTAR M035

ActiefCommunicatieMEO
NORAD 25851·PAYLOAD·🇺🇸 United States

Gelanceerd Jul 10, 1999 vanaf Cape Canaveral Space Force Station

Loading…

Volgende Passages (komende 24 uur)

TLE

VersSource: Space-Track

Epoch: Sep 14, 2026, 20:46 UTC

1 25851U 99037A   26257.86528029 -.00000027  00000-0  13749-2 0  9997
2 25851  51.9927 120.9804 0014214   1.9862  12.8950 11.04543016146504

Volg GLOBALSTAR M035 in realtime met AllMySat

Download on the App Store